| time (UTC) | temp F | wind direction | speed knots | gust knots | rain 1hr in | rain 24hr in | rain mn in | humidity % | barometer mb |
| 20260506165400 | 53 | 229 | 0.0 | 0.0 | 0.00 | 0.30 | 0.30 | 82 | 1008.8 |
| 20260506164854 | 53 | 229 | 0.0 | 0.0 | 0.00 | 0.30 | 0.30 | 81 | 1008.8 |
| 20260506164826 | 53 | 229 | 0.0 | 0.0 | 0.00 | 0.30 | 0.30 | 82 | 1008.7 |
| 20260506163337 | 53 | 229 | 0.0 | 0.0 | 0.00 | 0.30 | 0.30 | 80 | 1008.8 |
| 20260506162830 | 53 | 229 | 0.0 | 0.0 | 0.00 | 0.30 | 0.30 | 82 | 1008.8 |
| 20260506162324 | 54 | 229 | 0.0 | 0.0 | 0.00 | 0.30 | 0.30 | 82 | 1008.7 |
| 20260506161819 | 54 | 229 | 0.0 | 0.0 | 0.00 | 0.30 | 0.30 | 82 | 1008.6 |
| 20260506161754 | 54 | 229 | 0.0 | 0.0 | 0.00 | 0.30 | 0.30 | 83 | 1008.8 |
| 20260506160806 | 54 | 229 | 0.0 | 0.0 | 0.00 | 0.30 | 0.30 | 81 | 1008.7 |
| 20260506160300 | 54 | 229 | 0.0 | 0.0 | 0.00 | 0.30 | 0.30 | 79 | 1008.6 |
| 20260506155754 | 53 | 229 | 0.0 | 0.0 | 0.00 | 0.30 | 0.30 | 79 | 1008.6 |
| 20260506155248 | 53 | 229 | 0.0 | 0.9 | 0.00 | 0.30 | 0.30 | 80 | 1008.6 |
| 20260506154742 | 53 | 229 | 0.0 | 4.3 | 0.00 | 0.30 | 0.30 | 78 | 1008.6 |
| 20260506154236 | 54 | 230 | 0.0 | 4.3 | 0.00 | 0.30 | 0.30 | 82 | 1008.6 |
| 20260506154224 | 53 | 219 | 0.0 | 6.1 | 0.00 | 0.30 | 0.30 | 80 | 1008.6 |
| 20260506153228 | 54 | 265 | 0.0 | 6.1 | 0.00 | 0.30 | 0.30 | 82 | 1008.7 |
| 20260506152954 | 54 | 232 | 0.0 | 0.0 | 0.00 | 0.30 | 0.30 | 81 | 1008.6 |
| 20260506152229 | 54 | 232 | 0.0 | 6.1 | 0.00 | 0.30 | 0.30 | 81 | 1008.6 |
| 20260506151727 | 54 | 233 | 0.0 | 6.1 | 0.00 | 0.30 | 0.30 | 81 | 1008.6 |
| 20260506151709 | 54 | 222 | 0.0 | 4.3 | 0.00 | 0.30 | 0.30 | 80 | 1008.6 |
| 20260506150727 | 54 | 235 | 0.0 | 4.3 | 0.00 | 0.30 | 0.30 | 80 | 1008.6 |
| 20260506150226 | 53 | 241 | 0.0 | 3.5 | 0.00 | 0.30 | 0.30 | 80 | 1008.6 |
| 20260506145721 | 53 | 243 | 0.9 | 4.3 | 0.00 | 0.30 | 0.30 | 80 | 1008.6 |
| 20260506145223 | 53 | 254 | 0.9 | 4.3 | 0.00 | 0.30 | 0.30 | 81 | 1008.6 |
| 20260506145049 | 53 | 223 | 0.0 | 4.3 | 0.00 | 0.30 | 0.30 | 82 | 1008.5 |
| 20260506144953 | 53 | 238 | 0.0 | 5.2 | 0.00 | 0.30 | 0.30 | 80 | 1008.5 |
| 20260506143719 | 53 | 238 | 0.9 | 5.2 | 0.00 | 0.30 | 0.30 | 80 | 1008.6 |
| 20260506143711 | 53 | 213 | 1.7 | 8.7 | 0.00 | 0.30 | 0.30 | 79 | 1008.6 |
| 20260506142723 | 53 | 234 | 1.7 | 8.7 | 0.00 | 0.30 | 0.30 | 81 | 1008.5 |
| 20260506142222 | 53 | 263 | 2.6 | 7.0 | 0.00 | 0.30 | 0.30 | 80 | 1008.6 |
| 20260506141944 | 53 | 267 | 2.6 | 7.0 | 0.00 | 0.30 | 0.30 | 80 | 1008.6 |
| 20260506141217 | 53 | 210 | 0.9 | 7.0 | 0.00 | 0.30 | 0.30 | 82 | 1008.6 |
| 20260506140718 | 53 | 223 | 0.0 | 3.5 | 0.00 | 0.30 | 0.30 | 84 | 1008.6 |
| 20260506140218 | 53 | 224 | 0.9 | 4.3 | 0.00 | 0.30 | 0.30 | 84 | 1008.5 |
| 20260506135718 | 53 | 222 | 0.9 | 4.3 | 0.00 | 0.30 | 0.30 | 83 | 1008.5 |
| 20260506135216 | 53 | 224 | 0.9 | 4.3 | 0.00 | 0.30 | 0.30 | 85 | 1008.5 |
| 20260506134716 | 53 | 250 | 0.0 | 3.5 | 0.00 | 0.30 | 0.30 | 85 | 1008.6 |
| 20260506134703 | 52 | 263 | 0.0 | 5.2 | 0.00 | 0.30 | 0.30 | 86 | 1008.7 |
| 20260506133716 | 52 | 263 | 0.9 | 5.2 | 0.00 | 0.30 | 0.30 | 83 | 1008.6 |
| 20260506133657 | 52 | 269 | 0.0 | 4.3 | 0.01 | 0.30 | 0.30 | 84 | 1008.6 |
| 20260506132713 | 52 | 274 | 0.0 | 4.3 | 0.02 | 0.30 | 0.30 | 84 | 1008.6 |
| 20260506132212 | 52 | 250 | 0.0 | 0.0 | 0.02 | 0.30 | 0.30 | 87 | 1008.6 |
| 20260506131720 | 52 | 254 | 0.0 | 5.2 | 0.02 | 0.30 | 0.30 | 87 | 1008.5 |
| 20260506131211 | 52 | 263 | 0.0 | 5.2 | 0.03 | 0.30 | 0.30 | 86 | 1008.5 |
| 20260506130712 | 51 | 250 | 0.0 | 6.1 | 0.05 | 0.30 | 0.30 | 86 | 1008.5 |
| 20260506130212 | 51 | 267 | 0.0 | 6.1 | 0.06 | 0.30 | 0.30 | 86 | 1008.5 |
| 20260506125711 | 52 | 277 | 0.0 | 4.3 | 0.07 | 0.30 | 0.30 | 86 | 1008.5 |
| 20260506125212 | 51 | 254 | 0.9 | 8.7 | 0.07 | 0.30 | 0.30 | 85 | 1008.5 |
| 20260506124713 | 52 | 259 | 1.7 | 8.7 | 0.08 | 0.30 | 0.30 | 86 | 1008.5 |
| 20260506124208 | 52 | 265 | 1.7 | 8.7 | 0.09 | 0.30 | 0.30 | 87 | 1008.5 |
| 20260506123707 | 52 | 248 | 0.9 | 7.0 | 0.09 | 0.30 | 0.30 | 87 | 1008.3 |
| 20260506123207 | 52 | 224 | 0.0 | 5.2 | 0.09 | 0.29 | 0.29 | 88 | 1008.1 |
| 20260506122709 | 52 | 194 | 0.9 | 7.0 | 0.09 | 0.28 | 0.28 | 86 | 1008.1 |
| 20260506122208 | 52 | 223 | 0.9 | 7.0 | 0.10 | 0.28 | 0.28 | 86 | 1008.1 |
| 20260506121707 | 52 | 219 | 0.0 | 3.5 | 0.11 | 0.28 | 0.28 | 87 | 1008.0 |
| 20260506121209 | 52 | 213 | 0.9 | 4.3 | 0.12 | 0.27 | 0.27 | 86 | 1008.1 |
| 20260506120707 | 53 | 212 | 0.9 | 5.2 | 0.12 | 0.25 | 0.25 | 86 | 1008.0 |
| 20260506120208 | 53 | 214 | 0.9 | 5.2 | 0.12 | 0.24 | 0.24 | 87 | 1008.0 |
| 20260506115702 | 53 | 206 | 0.9 | 5.2 | 0.13 | 0.23 | 0.23 | 86 | 1007.9 |
| 20260506115640 | 53 | 220 | 1.7 | 7.8 | 0.13 | 0.23 | 0.23 | 86 | 1007.9 |
| 20260506114649 | 53 | 221 | 0.9 | 7.8 | 0.14 | 0.22 | 0.22 | 86 | 1007.8 |
| 20260506114144 | 54 | 229 | 0.0 | 6.1 | 0.14 | 0.21 | 0.21 | 90 | 1007.8 |
| 20260506113638 | 54 | 270 | 0.0 | 0.0 | 0.14 | 0.20 | 0.20 | 92 | 1007.7 |
| 20260506113132 | 54 | 273 | 0.0 | 0.0 | 0.14 | 0.20 | 0.20 | 91 | 1007.6 |
| 20260506112625 | 54 | 278 | 0.0 | 0.0 | 0.14 | 0.19 | 0.19 | 92 | 1007.6 |
| 20260506112120 | 54 | 211 | 0.0 | 0.0 | 0.14 | 0.18 | 0.18 | 91 | 1007.6 |
| 20260506111613 | 54 | 211 | 0.0 | 0.0 | 0.13 | 0.17 | 0.17 | 91 | 1007.6 |
| 20260506111108 | 54 | 210 | 0.0 | 0.0 | 0.12 | 0.15 | 0.15 | 90 | 1007.6 |
| 20260506110602 | 54 | 201 | 0.0 | 0.0 | 0.11 | 0.13 | 0.13 | 90 | 1007.6 |
| 20260506110056 | 54 | 201 | 0.0 | 0.0 | 0.11 | 0.13 | 0.13 | 90 | 1007.6 |
| 20260506110040 | 54 | 201 | 0.0 | 0.0 | 0.09 | 0.10 | 0.10 | 89 | 1007.7 |
| 20260506105043 | 54 | 201 | 0.0 | 0.0 | 0.08 | 0.09 | 0.09 | 90 | 1007.6 |
| 20260506104538 | 54 | 201 | 0.0 | 0.0 | 0.08 | 0.08 | 0.08 | 90 | 1007.5 |
| 20260506104032 | 54 | 201 | 0.0 | 0.0 | 0.07 | 0.07 | 0.07 | 89 | 1007.5 |
| 20260506103526 | 54 | 201 | 0.0 | 0.0 | 0.06 | 0.06 | 0.06 | 88 | 1007.4 |
| 20260506103456 | 54 | 201 | 0.0 | 0.0 | 0.05 | 0.05 | 0.06 | 87 | 1007.4 |
| 20260506102514 | 54 | 201 | 0.0 | 0.0 | 0.05 | 0.05 | 0.05 | 87 | 1007.3 |
| 20260506102008 | 54 | 201 | 0.0 | 0.0 | 0.04 | 0.04 | 0.04 | 87 | 1007.2 |
| 20260506101503 | 55 | 201 | 0.0 | 0.0 | 0.03 | 0.03 | 0.04 | 88 | 1007.2 |
| 20260506100955 | 55 | 201 | 0.0 | 0.0 | 0.03 | 0.03 | 0.03 | 87 | 1007.1 |
| 20260506100449 | 55 | 201 | 0.0 | 0.0 | 0.02 | 0.02 | 0.02 | 87 | 1007.1 |
| 20260506095944 | 55 | 201 | 0.0 | 0.0 | 0.02 | 0.02 | 0.02 | 87 | 1007.1 |
| 20260506095437 | 55 | 201 | 0.0 | 0.0 | 0.01 | 0.01 | 0.01 | 86 | 1007.2 |
| 20260506094932 | 55 | 201 | 0.0 | 0.0 | 0.00 | 0.00 | 0.00 | 85 | 1007.1 |
| 20260506094426 | 55 | 201 | 0.0 | 0.0 | 0.00 | 0.00 | 0.00 | 84 | 1007.0 |
| 20260506094410 | 55 | 201 | 0.0 | 0.0 | 0.00 | 0.00 | 0.00 | 83 | 1007.0 |
| 20260506093414 | 55 | 201 | 0.0 | 0.0 | 0.00 | 0.00 | 0.00 | 83 | 1006.9 |
| 20260506092907 | 55 | 201 | 0.0 | 0.0 | 0.00 | 0.00 | 0.00 | 83 | 1006.9 |
| 20260506092359 | 55 | 201 | 0.0 | 0.0 | 0.00 | 0.00 | 0.00 | 83 | 1006.8 |
| 20260506092338 | 55 | 195 | 0.0 | 0.0 | 0.00 | 0.00 | 0.00 | 82 | 1006.7 |
| 20260506091347 | 55 | 195 | 0.0 | 0.0 | 0.00 | 0.00 | 0.00 | 82 | 1006.7 |
| 20260506090842 | 55 | 195 | 0.0 | 0.0 | 0.00 | 0.00 | 0.00 | 82 | 1006.7 |
| 20260506090336 | 55 | 195 | 0.0 | 0.0 | 0.00 | 0.00 | 0.00 | 81 | 1006.7 |
| 20260506090322 | 55 | 195 | 0.0 | 0.0 | 0.00 | 0.00 | 0.00 | 82 | 1006.6 |
| 20260506085324 | 55 | 195 | 0.0 | 0.0 | 0.00 | 0.00 | 0.00 | 81 | 1006.6 |
| 20260506084817 | 55 | 195 | 0.0 | 0.0 | 0.00 | 0.00 | 0.00 | 80 | 1006.7 |
| 20260506084312 | 55 | 195 | 0.0 | 0.0 | 0.00 | 0.00 | 0.00 | 80 | 1006.8 |
| 20260506083806 | 55 | 195 | 0.0 | 0.0 | 0.00 | 0.00 | 0.00 | 81 | 1006.6 |
| 20260506083300 | 55 | 195 | 0.0 | 0.0 | 0.00 | 0.00 | 0.00 | 79 | 1006.6 |
| 20260506082754 | 54 | 195 | 0.0 | 0.0 | 0.00 | 0.00 | 0.00 | 82 | 1006.6 |
| 20260506082505 | 54 | 195 | 0.0 | 0.0 | 0.00 | 0.00 | 0.00 | 81 | 1006.4 |
| 20260506081742 | 54 | 195 | 0.0 | 0.0 | 0.00 | 0.00 | 0.00 | 82 | 1006.4 |
| 20260506081236 | 54 | 195 | 0.0 | 0.0 | 0.00 | 0.00 | 0.00 | 82 | 1006.3 |
| 20260506080730 | 54 | 195 | 0.0 | 0.0 | 0.00 | 0.00 | 0.00 | 82 | 1006.3 |
| 20260506080224 | 53 | 195 | 0.0 | 0.0 | 0.00 | 0.00 | 0.00 | 82 | 1006.3 |
| 20260506073408 | 53 | 195 | 0.0 | 0.0 | 0.00 | 0.00 | 0.00 | 84 | 1006.4 |
| 20260506072642 | 53 | 195 | 0.0 | 0.0 | 0.00 | 0.00 | 0.00 | 85 | 1006.6 |
| 20260506072136 | 52 | 195 | 0.0 | 0.0 | 0.00 | 0.01 | 0.00 | 87 | 1006.6 |
| 20260506071630 | 52 | 195 | 0.0 | 0.0 | 0.00 | 0.02 | 0.00 | 87 | 1006.6 |
| 20260506071123 | 52 | 195 | 0.0 | 0.0 | 0.00 | 0.02 | 0.00 | 87 | 1006.4 |
| 20260506070618 | 51 | 195 | 0.0 | 0.0 | 0.00 | 0.02 | 0.00 | 89 | 1006.4 |
| 20260506070554 | 51 | 195 | 0.0 | 0.0 | 0.00 | 0.03 | 0.00 | 89 | 1006.4 |
| 20260506062024 | 49 | 195 | 0.0 | 0.0 | 0.00 | 0.04 | 0.00 | 92 | 1006.6 |
| 20260506061518 | 49 | 195 | 0.0 | 0.0 | 0.00 | 0.05 | 0.00 | 92 | 1006.6 |
| 20260506061452 | 48 | 195 | 0.0 | 0.0 | 0.00 | 0.05 | 0.00 | 92 | 1006.4 |
| 20260506060506 | 48 | 195 | 0.0 | 0.0 | 0.00 | 0.05 | 0.00 | 93 | 1006.6 |
| 20260506050929 | 47 | 195 | 0.0 | 0.0 | 0.00 | 0.05 | 0.00 | 93 | 1006.8 |
| 20260506050904 | 47 | 172 | 0.0 | 0.0 | 0.00 | 0.05 | 0.00 | 94 | 1006.7 |
| 20260506044926 | 47 | 172 | 0.0 | 0.0 | 0.00 | 0.05 | 0.00 | 94 | 1006.6 |
| 20260506044427 | 47 | 172 | 0.0 | 0.0 | 0.00 | 0.05 | 0.00 | 94 | 1006.6 |
| 20260506043925 | 47 | 172 | 0.0 | 0.0 | 0.00 | 0.05 | 0.00 | 94 | 1006.7 |
| 20260506043427 | 47 | 172 | 0.0 | 0.0 | 0.00 | 0.05 | 0.00 | 94 | 1006.8 |
| 20260506042924 | 47 | 172 | 0.0 | 0.0 | 0.00 | 0.05 | 0.00 | 94 | 1006.7 |
| 20260506042919 | 47 | 172 | 0.0 | 0.0 | 0.00 | 0.05 | 0.00 | 94 | 1006.6 |
| 20260506041924 | 46 | 172 | 0.0 | 0.0 | 0.00 | 0.05 | 0.00 | 94 | 1006.6 |
| 20260506041422 | 46 | 172 | 0.0 | 0.0 | 0.00 | 0.05 | 0.00 | 94 | 1006.8 |
| 20260506041410 | 46 | 172 | 0.0 | 0.0 | 0.00 | 0.05 | 0.00 | 93 | 1006.9 |
| 20260506040417 | 46 | 172 | 0.0 | 0.0 | 0.00 | 0.05 | 0.00 | 94 | 1007.0 |
| 20260506040359 | 46 | 172 | 0.0 | 0.0 | 0.00 | 0.05 | 0.00 | 94 | 1007.0 |
| 20260506035413 | 46 | 172 | 0.0 | 0.0 | 0.00 | 0.05 | 0.00 | 94 | 1007.0 |
| 20260506034913 | 46 | 172 | 0.0 | 0.0 | 0.00 | 0.05 | 0.00 | 94 | 1007.1 |
| 20260506034857 | 46 | 172 | 0.0 | 0.0 | 0.00 | 0.05 | 0.00 | 94 | 1007.1 |
| 20260506033913 | 46 | 172 | 0.0 | 0.0 | 0.00 | 0.05 | 0.00 | 94 | 1007.2 |
| 20260506033413 | 46 | 172 | 0.0 | 0.0 | 0.00 | 0.05 | 0.00 | 94 | 1007.2 |
| 20260506033357 | 46 | 172 | 0.0 | 0.0 | 0.00 | 0.05 | 0.00 | 94 | 1007.2 |
| 20260506032412 | 46 | 172 | 0.0 | 0.0 | 0.00 | 0.05 | 0.00 | 94 | 1007.2 |
| 20260506031913 | 46 | 172 | 0.0 | 0.0 | 0.00 | 0.05 | 0.00 | 93 | 1007.3 |
| 20260506031849 | 46 | 172 | 0.0 | 0.0 | 0.00 | 0.05 | 0.00 | 93 | 1007.4 |
| 20260506030910 | 46 | 172 | 0.0 | 0.0 | 0.00 | 0.05 | 0.00 | 93 | 1007.3 |
| 20260506030408 | 46 | 172 | 0.0 | 0.0 | 0.00 | 0.05 | 0.00 | 93 | 1007.4 |
| 20260506025909 | 46 | 172 | 0.0 | 0.0 | 0.00 | 0.05 | 0.00 | 93 | 1007.3 |
| 20260506025410 | 46 | 172 | 0.0 | 0.0 | 0.00 | 0.05 | 0.00 | 93 | 1007.4 |
| 20260506025354 | 46 | 172 | 0.0 | 0.0 | 0.00 | 0.05 | 0.00 | 93 | 1007.4 |
| 20260506024410 | 46 | 172 | 0.0 | 0.0 | 0.00 | 0.05 | 0.00 | 93 | 1007.5 |
| 20260506023909 | 46 | 172 | 0.0 | 0.0 | 0.00 | 0.05 | 0.00 | 93 | 1007.4 |
| 20260506023412 | 46 | 172 | 0.0 | 0.0 | 0.00 | 0.05 | 0.00 | 93 | 1007.4 |
| 20260506023351 | 47 | 172 | 0.0 | 0.0 | 0.00 | 0.05 | 0.00 | 93 | 1007.5 |
| 20260506022405 | 47 | 172 | 0.0 | 0.0 | 0.00 | 0.05 | 0.00 | 93 | 1007.5 |
| 20260506021906 | 47 | 172 | 0.0 | 0.0 | 0.00 | 0.05 | 0.00 | 93 | 1007.5 |
| 20260506021406 | 47 | 172 | 0.0 | 0.0 | 0.00 | 0.05 | 0.00 | 93 | 1007.4 |
| 20260506020906 | 47 | 172 | 0.0 | 0.0 | 0.00 | 0.05 | 0.00 | 93 | 1007.4 |
| 20260506020405 | 47 | 172 | 0.0 | 0.0 | 0.00 | 0.05 | 0.00 | 93 | 1007.4 |
| 20260506015904 | 47 | 172 | 0.0 | 0.0 | 0.00 | 0.05 | 0.00 | 93 | 1007.4 |
| 20260506015404 | 47 | 172 | 0.0 | 0.0 | 0.00 | 0.05 | 0.00 | 92 | 1007.5 |
| 20260506014906 | 47 | 172 | 0.0 | 0.0 | 0.00 | 0.05 | 0.00 | 93 | 1007.5 |
| 20260506014405 | 47 | 172 | 0.0 | 0.0 | 0.00 | 0.05 | 0.00 | 92 | 1007.6 |
| 20260506013906 | 47 | 172 | 0.0 | 0.0 | 0.00 | 0.05 | 0.00 | 92 | 1007.5 |
| 20260506013403 | 48 | 172 | 0.0 | 0.0 | 0.00 | 0.05 | 0.00 | 92 | 1007.6 |
| 20260506012900 | 48 | 172 | 0.0 | 0.0 | 0.00 | 0.05 | 0.00 | 92 | 1007.8 |
| 20260506012400 | 48 | 172 | 0.0 | 0.0 | 0.00 | 0.05 | 0.00 | 92 | 1007.9 |
| 20260506011859 | 48 | 172 | 0.0 | 0.0 | 0.00 | 0.05 | 0.00 | 93 | 1007.9 |
| 20260506011356 | 48 | 172 | 0.0 | 0.0 | 0.00 | 0.05 | 0.00 | 92 | 1008.0 |
| 20260506010856 | 48 | 172 | 0.0 | 0.0 | 0.00 | 0.05 | 0.00 | 92 | 1008.1 |
| 20260506010356 | 48 | 172 | 0.0 | 0.0 | 0.00 | 0.05 | 0.00 | 92 | 1008.0 |
| 20260506005854 | 48 | 172 | 0.0 | 0.0 | 0.00 | 0.05 | 0.00 | 92 | 1008.0 |
| 20260506005354 | 48 | 172 | 0.0 | 0.0 | 0.00 | 0.05 | 0.00 | 92 | 1008.1 |
| 20260506004855 | 48 | 172 | 0.0 | 0.0 | 0.00 | 0.05 | 0.00 | 92 | 1008.3 |
| 20260506004356 | 48 | 172 | 0.0 | 0.0 | 0.00 | 0.05 | 0.00 | 92 | 1008.3 |
| 20260506003854 | 48 | 172 | 0.0 | 0.0 | 0.00 | 0.05 | 0.00 | 92 | 1008.3 |
| 20260506003352 | 48 | 172 | 0.0 | 0.0 | 0.00 | 0.05 | 0.00 | 92 | 1008.4 |
| 20260506002853 | 48 | 172 | 0.0 | 0.0 | 0.00 | 0.05 | 0.00 | 92 | 1008.5 |
| 20260506002347 | 48 | 172 | 0.0 | 0.0 | 0.00 | 0.05 | 0.00 | 92 | 1008.4 |
| 20260506001841 | 48 | 172 | 0.0 | 0.0 | 0.00 | 0.05 | 0.00 | 92 | 1008.4 |
| 20260506001335 | 48 | 172 | 0.0 | 0.0 | 0.00 | 0.05 | 0.00 | 92 | 1008.4 |
| 20260506000829 | 48 | 172 | 0.0 | 0.0 | 0.00 | 0.05 | 0.00 | 92 | 1008.5 |
| 20260506000323 | 48 | 172 | 0.0 | 0.0 | 0.00 | 0.05 | 0.00 | 92 | 1008.4 |
| 20260505235816 | 48 | 172 | 0.0 | 0.0 | 0.00 | 0.05 | 0.00 | 92 | 1008.5 |
| 20260505235311 | 48 | 172 | 0.0 | 0.0 | 0.00 | 0.05 | 0.00 | 91 | 1008.6 |
| 20260505234804 | 48 | 172 | 0.0 | 0.0 | 0.00 | 0.05 | 0.00 | 91 | 1008.6 |
| 20260505234517 | 48 | 172 | 0.0 | 0.0 | 0.00 | 0.05 | 0.00 | 92 | 1008.7 |
| 20260505233753 | 48 | 172 | 0.0 | 0.0 | 0.00 | 0.05 | 0.00 | 92 | 1008.7 |
| 20260505233247 | 48 | 172 | 0.0 | 0.0 | 0.00 | 0.05 | 0.00 | 91 | 1008.8 |
| 20260505232741 | 49 | 172 | 0.0 | 0.0 | 0.00 | 0.05 | 0.00 | 91 | 1008.9 |
| 20260505232717 | 49 | 172 | 0.0 | 0.0 | 0.00 | 0.05 | 0.00 | 91 | 1008.9 |
| 20260505231729 | 49 | 172 | 0.0 | 0.0 | 0.00 | 0.05 | 0.00 | 91 | 1008.9 |
| 20260505231710 | 49 | 172 | 0.0 | 0.0 | 0.00 | 0.05 | 0.00 | 91 | 1008.9 |
| 20260505230717 | 49 | 172 | 0.0 | 0.0 | 0.00 | 0.05 | 0.00 | 91 | 1009.0 |
| 20260505230211 | 49 | 172 | 0.0 | 0.0 | 0.00 | 0.05 | 0.00 | 91 | 1009.0 |
| 20260505230015 | 49 | 172 | 0.0 | 0.0 | 0.00 | 0.05 | 0.00 | 91 | 1009.1 |
| 20260505225925 | 48 | 172 | 0.0 | 0.0 | 0.00 | 0.05 | 0.00 | 91 | 1009.1 |
| 20260505224654 | 48 | 172 | 0.0 | 0.0 | 0.00 | 0.05 | 0.00 | 91 | 1009.1 |
| 20260505224147 | 48 | 172 | 0.0 | 0.0 | 0.00 | 0.05 | 0.00 | 91 | 1009.1 |
| 20260505223641 | 48 | 172 | 0.0 | 0.0 | 0.00 | 0.05 | 0.00 | 91 | 1009.1 |
| 20260505223632 | 48 | 172 | 0.0 | 0.0 | 0.00 | 0.05 | 0.00 | 91 | 1009.1 |
| 20260505222629 | 48 | 172 | 0.0 | 0.0 | 0.00 | 0.05 | 0.00 | 90 | 1009.3 |
| 20260505222123 | 49 | 172 | 0.0 | 0.0 | 0.00 | 0.05 | 0.00 | 90 | 1009.1 |
| 20260505222051 | 49 | 172 | 0.0 | 0.0 | 0.00 | 0.05 | 0.00 | 89 | 1009.0 |
| 20260505221111 | 49 | 173 | 0.0 | 0.0 | 0.00 | 0.05 | 0.00 | 90 | 1008.8 |
| 20260505221056 | 49 | 182 | 0.0 | 0.0 | 0.00 | 0.05 | 0.00 | 90 | 1009.0 |
| 20260505220059 | 48 | 238 | 0.0 | 0.0 | 0.00 | 0.05 | 0.00 | 91 | 1009.0 |
| 20260505215553 | 48 | 238 | 0.0 | 0.0 | 0.00 | 0.05 | 0.05 | 91 | 1009.1 |
| 20260505215047 | 48 | 238 | 0.0 | 0.0 | 0.00 | 0.05 | 0.05 | 91 | 1009.3 |
| 20260505214541 | 48 | 240 | 0.0 | 0.0 | 0.00 | 0.05 | 0.05 | 90 | 1009.5 |
| 20260505214035 | 48 | 240 | 0.0 | 0.0 | 0.00 | 0.05 | 0.05 | 90 | 1009.3 |
| 20260505213529 | 48 | 240 | 0.0 | 0.0 | 0.00 | 0.05 | 0.05 | 90 | 1009.3 |
| 20260505213024 | 48 | 240 | 0.0 | 0.0 | 0.00 | 0.05 | 0.05 | 89 | 1009.3 |
| 20260505212517 | 49 | 240 | 0.0 | 0.0 | 0.00 | 0.05 | 0.05 | 88 | 1009.3 |
| 20260505212012 | 49 | 240 | 0.0 | 0.0 | 0.00 | 0.05 | 0.05 | 88 | 1009.3 |
| 20260505211505 | 49 | 240 | 0.0 | 0.0 | 0.00 | 0.05 | 0.05 | 88 | 1009.4 |
| 20260505211000 | 49 | 240 | 0.0 | 0.0 | 0.00 | 0.05 | 0.05 | 87 | 1009.5 |
| 20260505210453 | 49 | 240 | 0.0 | 0.0 | 0.00 | 0.05 | 0.05 | 87 | 1009.4 |
| 20260505205946 | 49 | 240 | 0.0 | 0.0 | 0.00 | 0.05 | 0.05 | 87 | 1009.5 |
| 20260505205441 | 49 | 240 | 0.0 | 0.0 | 0.00 | 0.05 | 0.05 | 87 | 1009.4 |
| 20260505204934 | 50 | 240 | 0.0 | 0.0 | 0.00 | 0.05 | 0.05 | 88 | 1009.4 |
| 20260505204429 | 50 | 240 | 0.0 | 0.0 | 0.00 | 0.05 | 0.05 | 88 | 1009.4 |
| 20260505203923 | 50 | 240 | 0.0 | 0.0 | 0.00 | 0.05 | 0.05 | 89 | 1009.3 |
| 20260505203417 | 50 | 240 | 0.0 | 0.0 | 0.00 | 0.05 | 0.05 | 89 | 1009.4 |
| 20260505203400 | 51 | 240 | 0.0 | 0.0 | 0.00 | 0.05 | 0.05 | 88 | 1009.5 |
| 20260505202405 | 51 | 240 | 0.0 | 0.0 | 0.00 | 0.05 | 0.05 | 88 | 1009.5 |
| 20260505201859 | 51 | 240 | 0.0 | 0.0 | 0.00 | 0.05 | 0.05 | 87 | 1009.3 |
| 20260505201353 | 51 | 240 | 0.0 | 0.0 | 0.00 | 0.05 | 0.05 | 86 | 1009.3 |
| 20260505200847 | 51 | 240 | 0.0 | 0.0 | 0.00 | 0.05 | 0.05 | 86 | 1009.1 |
| 20260505200341 | 52 | 240 | 0.0 | 0.9 | 0.00 | 0.05 | 0.05 | 85 | 1009.1 |
| 20260505195835 | 52 | 240 | 0.0 | 0.9 | 0.00 | 0.05 | 0.05 | 84 | 1009.0 |
| 20260505195329 | 52 | 240 | 0.0 | 0.0 | 0.00 | 0.05 | 0.05 | 83 | 1009.0 |
| 20260505194823 | 52 | 240 | 0.0 | 0.0 | 0.00 | 0.05 | 0.05 | 83 | 1008.8 |
| 20260505194317 | 53 | 240 | 0.0 | 1.7 | 0.00 | 0.05 | 0.05 | 83 | 1008.9 |
| 20260505193811 | 53 | 240 | 0.0 | 1.7 | 0.00 | 0.05 | 0.05 | 83 | 1008.9 |
| 20260505193305 | 53 | 240 | 0.0 | 1.7 | 0.00 | 0.05 | 0.05 | 83 | 1008.8 |
| 20260505193236 | 53 | 240 | 0.0 | 0.0 | 0.00 | 0.05 | 0.05 | 83 | 1008.8 |
| 20260505192253 | 54 | 240 | 0.0 | 0.0 | 0.00 | 0.05 | 0.05 | 82 | 1008.7 |
| 20260505191747 | 54 | 240 | 0.0 | 0.0 | 0.00 | 0.05 | 0.05 | 82 | 1008.8 |
| 20260505191240 | 54 | 240 | 0.0 | 0.0 | 0.00 | 0.05 | 0.05 | 82 | 1008.7 |
| 20260505190735 | 55 | 240 | 0.0 | 0.0 | 0.00 | 0.05 | 0.05 | 81 | 1008.7 |
| 20260505190229 | 55 | 240 | 0.0 | 0.0 | 0.00 | 0.05 | 0.05 | 80 | 1008.6 |
| 20260505190210 | 56 | 240 | 0.0 | 0.0 | 0.00 | 0.05 | 0.05 | 80 | 1008.5 |
| 20260505185217 | 56 | 240 | 0.0 | 0.0 | 0.00 | 0.05 | 0.05 | 80 | 1008.6 |
| 20260505184711 | 56 | 240 | 0.0 | 1.7 | 0.00 | 0.05 | 0.05 | 77 | 1008.5 |
| 20260505184205 | 57 | 240 | 0.0 | 1.7 | 0.00 | 0.05 | 0.05 | 75 | 1008.5 |
| 20260505183659 | 57 | 257 | 0.0 | 0.0 | 0.00 | 0.05 | 0.05 | 76 | 1008.5 |
| 20260505183153 | 58 | 257 | 0.0 | 0.0 | 0.00 | 0.05 | 0.05 | 74 | 1008.4 |
| 20260505182647 | 58 | 257 | 0.0 | 0.9 | 0.00 | 0.05 | 0.05 | 73 | 1008.3 |
| 20260505182400 | 58 | 257 | 0.0 | 3.5 | 0.00 | 0.05 | 0.05 | 70 | 1008.3 |
| 20260505181636 | 59 | 257 | 0.0 | 3.5 | 0.00 | 0.05 | 0.05 | 69 | 1008.3 |
| 20260505181129 | 59 | 257 | 0.0 | 0.9 | 0.00 | 0.05 | 0.05 | 68 | 1008.2 |
| 20260505180623 | 59 | 257 | 0.0 | 0.0 | 0.00 | 0.05 | 0.05 | 67 | 1008.2 |
| 20260505180116 | 59 | 257 | 0.0 | 0.0 | 0.00 | 0.05 | 0.05 | 66 | 1008.1 |
| 20260505175611 | 60 | 257 | 0.0 | 0.9 | 0.00 | 0.05 | 0.05 | 65 | 1008.2 |
| 20260505175104 | 60 | 257 | 0.0 | 1.7 | 0.00 | 0.05 | 0.05 | 65 | 1008.2 |
| 20260505174559 | 60 | 257 | 0.0 | 5.2 | 0.00 | 0.05 | 0.05 | 64 | 1008.3 |
| 20260505174053 | 61 | 249 | 0.9 | 7.8 | 0.00 | 0.05 | 0.05 | 63 | 1008.3 |
| 20260505173858 | 61 | 221 | 0.9 | 7.8 | 0.00 | 0.05 | 0.05 | 62 | 1008.3 |
| 20260505173814 | 61 | 273 | 2.6 | 10.4 | 0.00 | 0.05 | 0.05 | 65 | 1008.1 |
| 20260505172535 | 62 | 273 | 4.3 | 11.3 | 0.00 | 0.05 | 0.05 | 63 | 1008.2 |
| 20260505172029 | 62 | 272 | 4.3 | 11.3 | 0.00 | 0.05 | 0.05 | 62 | 1008.0 |
| 20260505171523 | 62 | 259 | 3.5 | 7.8 | 0.00 | 0.05 | 0.05 | 61 | 1007.8 |
| 20260505171017 | 62 | 226 | 2.6 | 7.0 | 0.00 | 0.05 | 0.05 | 61 | 1007.8 |
| 20260505170511 | 62 | 224 | 1.7 | 7.0 | 0.00 | 0.05 | 0.05 | 61 | 1007.6 |
| 20260505170005 | 62 | 218 | 2.6 | 6.1 | 0.00 | 0.05 | 0.05 | 60 | 1007.8 |
| 20260505165942 | 62 | 273 | 3.5 | 6.1 | 0.00 | 0.05 | 0.05 | 60 | 1007.8 |